Change the Weather History Date:

Tuesday, September 3, 2013

  Actual Average Record
Temperature  
Mean Temperature 72 °F -  
Max Temperature 80 °F 74 °F 93 °F (1973)
Min Temperature 64 °F 55 °F 39 °F (1994)
Cooling Degree Days 8    
Growing Degree Days 22 (Base 50)    
Moisture  
Dew Point 67 °F    
Average Humidity 90    
Maximum Humidity 100    
Minimum Humidity 67    
Precipitation  
Precipitation 0.01 in - - ()
Sea Level Pressure  
Sea Level Pressure 29.73 in    
Wind  
Wind Speed 3 mph (WSW)    
Max Wind Speed 10 mph    
Max Gust Speed -    
Visibility 6 miles    
Events Fog , Rain    
Averages and records for this station are not official NWS values.
T = Trace of Precipitation, MM = Missing Value Source: NWS Daily Summary

Daily Weather History Graph

Daily Weather History Graph

Search for Another Location

Airport or City:

Trip Planner

Search our weather history database for the weather conditions in past years. The results will help you decide how hot, cold, wet, or windy it might be!

Date:

Astronomy

Sep. 03, 2013 Rise Set
Actual Time 6:10 AM EDT 7:14 PM EDT
Civil Twilight 5:40 AM EDT 7:43 PM EDT
Nautical Twilight 5:06 AM EDT 8:17 PM EDT
Astronomical Twilight 4:29 AM EDT 8:54 PM EDT
Moon 4:19 AM EDT (9/3) 6:00 PM EDT (9/3)
Length of Visible Light 14h 02m
Length of Day
13h 04m
Waning Crescent, 3% of the Moon is Illuminated
Sep 3
Waning Crescent
Sep 5
New
Sep 12
First Quarter
Sep 19
Full
Sep 26
Last Quarter

Hourly Weather History & Observations

Time (EDT) Temp. Dew Point Humidity Pressure Visibility Wind Dir Wind Speed Gust Speed Precip Events Conditions
12:30 AM 69.8 °F 69.8 °F 100% 29.72 in 0.4 mi West 1.2 mph - N/A Rain Light Rain
12:43 AM 69.8 °F 69.8 °F 100% 29.72 in 0.5 mi Calm Calm - N/A Fog , Rain Light Rain
12:58 AM 68.9 °F 68.9 °F 100% 29.74 in 0.8 mi West 1.2 mph - 0.01 in Rain Light Rain
1:13 AM 69.8 °F 69.8 °F 100% 29.72 in 0.5 mi NE 2.3 mph - N/A Fog , Rain Light Rain
1:20 AM 69.8 °F 69.8 °F 100% 29.70 in 0.8 mi East 2.3 mph - N/A   Overcast
1:44 AM 69.8 °F 69.8 °F 100% 29.70 in 0.5 mi East 3.5 mph - N/A Fog Fog
1:58 AM 68.9 °F 68.9 °F 100% 29.71 in 0.4 mi East 3.5 mph - 0.00 in Fog Fog
2:09 AM 68.0 °F 68.0 °F 100% 29.70 in 0.1 mi ESE 3.5 mph - N/A Fog Fog
2:58 AM 68.9 °F 68.9 °F 100% 29.71 in 0.1 mi NW 1.2 mph - N/A Fog Fog
3:58 AM 69.3 °F 69.3 °F 100% 29.70 in 1.2 mi West 2.3 mph - N/A   Overcast
4:35 AM 69.8 °F 69.8 °F 100% 29.68 in 3.0 mi WNW 3.5 mph - N/A   Mostly Cloudy
4:58 AM 67.8 °F 67.8 °F 100% 29.70 in 4.0 mi WNW 6.9 mph - N/A   Mostly Cloudy
5:40 AM 68.0 °F 68.0 °F 100% 29.70 in 6.0 mi West 2.3 mph - N/A   Mostly Cloudy
5:58 AM 67.3 °F 67.3 °F 100% 29.72 in 7.0 mi Calm Calm - N/A   Mostly Cloudy
6:10 AM 66.2 °F 66.2 °F 100% 29.72 in 7.0 mi SSE 2.3 mph - N/A   Mostly Cloudy
6:43 AM 68.0 °F 68.0 °F 100% 29.73 in 4.0 mi West 1.2 mph - N/A   Mostly Cloudy
6:58 AM 68.0 °F 68.0 °F 100% 29.74 in 4.0 mi SSW 2.3 mph - N/A   Overcast
7:58 AM 68.0 °F 68.0 °F 100% 29.76 in 7.0 mi SSW 1.2 mph - N/A   Mostly Cloudy
8:58 AM 69.3 °F 69.3 °F 100% 29.77 in 7.0 mi West 2.3 mph - N/A   Mostly Cloudy
9:37 AM 71.6 °F 71.6 °F 100% 29.76 in 10.0 mi Variable 2.3 mph - N/A   Mostly Cloudy
9:58 AM 72.7 °F 68.2 °F 86% 29.78 in 10.0 mi West 4.6 mph - N/A   Mostly Cloudy
10:28 AM 73.4 °F 68.0 °F 83% 29.76 in 10.0 mi Variable 3.5 mph - N/A   Mostly Cloudy
10:58 AM 75.2 °F 67.8 °F 78% 29.76 in 10.0 mi Variable 3.5 mph - N/A   Mostly Cloudy
11:58 AM 76.8 °F 66.9 °F 71% 29.75 in 10.0 mi West 3.5 mph - N/A   Mostly Cloudy
12:58 PM 78.1 °F 67.6 °F 70% 29.74 in 10.0 mi SSE 4.6 mph - N/A   Mostly Cloudy
1:58 PM 79.3 °F 67.6 °F 67% 29.73 in 10.0 mi East 3.5 mph - N/A   Overcast
2:58 PM 75.0 °F 68.5 °F 80% 29.72 in 10.0 mi SSE 8.1 mph - N/A   Overcast
3:58 PM 77.5 °F 68.4 °F 73% 29.71 in 10.0 mi SSE 9.2 mph - N/A   Overcast
4:58 PM 76.5 °F 68.9 °F 77% 29.70 in 10.0 mi West 3.5 mph - N/A   Overcast
5:58 PM 75.9 °F 67.1 °F 74% 29.71 in 10.0 mi WNW 10.4 mph - N/A   Mostly Cloudy
6:58 PM 72.5 °F 64.2 °F 75% 29.73 in 10.0 mi West 4.6 mph - N/A   Mostly Cloudy
7:58 PM 71.4 °F 64.2 °F 78% 29.74 in 10.0 mi WSW 5.8 mph - N/A   Mostly Cloudy
8:58 PM 69.6 °F 63.9 °F 82% 29.77 in 10.0 mi WSW 5.8 mph - N/A   Mostly Cloudy
9:58 PM 68.2 °F 63.3 °F 84% 29.77 in 10.0 mi WSW 6.9 mph - N/A   Mostly Cloudy
10:58 PM 66.6 °F 59.0 °F 77% 29.78 in 10.0 mi WSW 8.1 mph - N/A   Partly Cloudy
11:58 PM 64.8 °F 58.3 °F 79% 29.78 in 10.0 mi WSW 8.1 mph - N/A   Partly Cloudy